2024-168B

Last updated on Tue Oct 15 2024 00:02:03 GMT+0000 (Coordinated Universal Time)

1 61186U 24168B 24286.21105845 -.00000036 00000+0 00000+0 0 9999 2 61186 54.9718 323.4431 0117609 177.6003 215.0234 1.82968737 420
UTC large
Height (km)
Speed (km/s)
/
Latitude / Longitude
Inclination (degrees)
Orbital Period (minutes)
Azimuth
Elevation
Range (km)
Doppler Factor

Next 0 passes for location: London (51.5072 / 0.1276)

Sorry there are no passes over London.